[[{"header":{"parameterUnit":"m.s-1","parameterCategory":1,"la1":30.2991,"la2":30.254,"lo1":-89.0895,"lo2":-89.0444,"dy":0.0017,"dx":0.0017,"nx":28,"ny":28,"refTime":"2025-04-23T09:00:00:Z","depth":0,"parameterNumber":2,"parameterNumberName":"U-component_of_WINDS"},"data":[0,0,0,0,0,0,0,0,0,0,0,0,0,0,0,0,0,0,0,0,0,0,0,0,0,0,0,0,0,0,0,0,0,0,0,0,0,0,0,0,0,0,0,0,0,0,0,0,0,0,0,0,0,0,0,0,0,0,-2.2925,-2.2925,0,-2.2919,-2.2919,-2.2919,-2.2865,-2.2864,-2.2862,-2.2861,-2.2856,-2.2857,-2.2858,0,0,0,0,0,0,0,0,0,0,0,0,0,-2.2891,-2.2892,-2.2925,-2.2925,-2.2925,-2.2919,-2.2919,-2.2919,-2.2865,-2.2864,-2.2862,-2.2861,-2.2855,-2.2857,-2.2858,0,0,0,0,0,0,0,0,0,0,0,0,0,-2.2898,-2.2892,-2.2925,-2.2897,-2.2895,-2.2919,-2.2919,-2.2919,-2.2866,-2.2864,-2.2862,-2.286,-2.2855,-2.2857,-2.2858,-2.2908,0,0,-2.2863,-2.2864,0,0,0,0,0,0,0,0,-2.2897,-2.2899,-2.2902,-2.2899,-2.2897,-2.2891,-2.2905,-2.2915,-2.2866,-2.2877,-2.2861,-2.2859,-2.2869,-2.2869,-2.2873,-2.2908,-2.2908,-2.2863,-2.2864,-2.2865,-2.2865,0,0,0,0,0,0,0,-2.2897,-2.2899,-2.2923,-2.2902,-2.2899,-2.2886,-2.2884,-2.2907,-2.2884,-2.2876,-2.2872,-2.2872,-2.2867,-2.2871,-2.2872,-2.2908,-2.2863,-2.2865,-2.2866,-2.2866,-2.2984,-2.2986,0,0,0,0,0,0,-2.29,-2.2899,-2.2923,-2.2922,-2.2892,-2.2888,-2.2886,-2.2895,-2.2884,-2.288,-2.2873,-2.2869,-2.2869,-2.287,-2.2872,-2.293,-2.2865,-2.2867,-2.2868,-2.2982,-2.2985,-2.2987,0,0,0,0,0,0,-2.29,-2.2903,-2.2923,-2.291,-2.2911,-2.2891,-2.29,-2.2896,-2.2899,-2.2882,-2.2878,-2.2882,-2.2868,-2.2869,-2.29,-2.2929,-2.2867,-2.2869,-2.298,-2.2983,-2.2986,-2.3047,0,0,0,0,0,0,-2.2899,-2.2903,-2.2922,-2.291,-2.2912,-2.2951,-2.2902,-2.2897,-2.2902,-2.2897,-2.2889,-2.2885,-2.2866,-2.2897,-2.2901,-2.293,-2.287,-2.2977,-2.2981,-2.2985,-2.3042,-2.3052,-2.306,0,0,0,0,0,-2.2898,-2.2939,-2.2923,-2.2926,-2.2935,-2.2953,-2.2954,-2.2931,-2.2905,-2.2924,-2.2913,-2.2886,-2.2925,-2.2901,-2.2905,-2.2935,-2.2975,-2.298,-2.2985,-2.3038,-2.305,-2.306,0,0,0,0,0,0,-2.2955,-2.2937,-2.2919,-2.2958,-2.2957,-2.2944,-2.2967,-2.2944,-2.2951,-2.2946,-2.2917,-2.2916,-2.295,-2.2945,-2.2919,-2.2983,-2.2945,-2.2951,-2.2985,-2.2996,-2.3005,-2.3005,-2.2871,0,0,0,0,0,-2.2972,-2.2988,-2.2971,-2.3007,-2.3008,-2.2988,-2.2994,-2.2977,-2.2975,-2.2975,-2.2966,-2.2965,-2.2978,-2.2986,-2.2997,-2.3041,-2.3039,-2.3064,-2.3072,-2.308,-2.3085,-2.3109,-2.312,-2.3003,-2.3003,-2.3003,0,0,-2.3007,-2.3,-2.3011,-2.3019,-2.3016,-2.3033,-2.2988,-2.3008,-2.302,-2.2978,-2.3006,-2.2999,-2.2997,-2.3035,-2.3051,-2.3032,-2.3117,-2.3086,-2.3092,-2.3093,-2.3115,-2.3126,-2.3136,-2.3006,-2.3006,-2.3005,0,0,-2.3081,-2.3076,-2.3106,-2.3104,-2.3101,-2.3087,-2.3094,-2.3084,-2.3078,-2.3106,-2.3074,-2.3089,-2.3111,-2.311,-2.3113,-2.3186,-2.3162,-2.3191,-2.3237,-2.326,-2.327,-2.3278,-2.3304,-2.3314,-2.3196,-2.3196,-2.3196,0,-2.3125,-2.315,-2.3124,-2.3146,-2.315,-2.3112,-2.3142,-2.3142,-2.3142,-2.3146,-2.3125,-2.3151,-2.3147,-2.3184,-2.3202,-2.3205,-2.3213,-2.3191,-2.327,-2.3278,-2.3285,-2.331,-2.332,-2.32,-2.3199,-2.3199,-2.3199,0,-2.3205,-2.3222,-2.3247,-2.3248,-2.3254,-2.3281,-2.3259,-2.3269,-2.3251,-2.3239,-2.3268,-2.3262,-2.327,-2.3278,-2.326,-2.3312,-2.3301,-2.3275,-2.3237,-2.33,-2.3323,-2.3333,-2.3205,-2.3203,-2.3202,-2.3202,0,0,-2.3314,-2.3301,-2.331,-2.331,-2.3304,-2.3317,-2.3341,-2.3349,-2.3358,-2.336,-2.338,-2.3399,-2.3375,-2.3379,-2.3361,-2.3381,-2.344,-2.3353,-2.3352,-2.337,-2.3497,-2.3517,-2.3528,-2.3424,-2.3425,-2.3427,-2.3498,0,-2.3385,-2.3426,-2.3403,-2.3447,-2.3463,-2.3427,-2.3448,-2.3447,-2.3437,-2.3449,-2.3438,-2.3452,-2.342,-2.3421,-2.344,-2.3429,-2.3465,-2.3423,-2.3442,-2.3443,-2.3444,-2.354,-2.3561,-2.3629,-2.3507,-2.3508,-2.3509,0,-2.3474,-2.3479,-2.3524,-2.3514,-2.352,-2.354,-2.3545,-2.3557,-2.3555,-2.3546,-2.355,-2.3527,-2.355,-2.3512,-2.3545,-2.3517,-2.3523,-2.3519,-2.3521,-2.3522,-2.348,-2.3545,-2.3649,-2.366,-2.3523,-2.3522,-2.3521,0,-2.3549,-2.3568,-2.3597,-2.3598,-2.3588,-2.3602,-2.3598,-2.3594,-2.36,-2.3605,-2.3609,-2.3617,-2.3621,-2.3628,-2.3608,-2.3582,-2.3643,-2.3603,-2.3637,-2.3637,-2.3651,-2.3651,-2.3759,-2.3655,-2.3655,-2.3655,-2.3654,0,-2.3631,-2.3661,-2.3631,-2.3649,-2.3681,-2.3655,-2.3687,-2.3679,-2.3676,-2.3692,-2.3661,-2.3677,-2.365,-2.3663,-2.3648,-2.3677,-2.3679,-2.3673,-2.3669,-2.3676,-2.3677,-2.368,-2.3675,-2.3657,-2.3657,-2.3656,-2.3656,0,-2.3722,-2.3703,-2.3733,-2.372,-2.3718,-2.3742,-2.3731,-2.3747,-2.3735,-2.3756,-2.376,-2.3741,-2.3755,-2.3735,-2.3748,-2.3737,-2.3777,-2.3766,-2.3778,-2.3775,-2.381,-2.3807,-2.3924,-2.3938,-2.3825,-2.3826,-2.3827,0,-2.3775,-2.3797,-2.3787,-2.3795,-2.3793,-2.3807,-2.3814,-2.3789,-2.3796,-2.3795,-2.3812,-2.3823,-2.3831,-2.3856,-2.3843,-2.3852,-2.3841,-2.3881,-2.3842,-2.3849,-2.3842,-2.3841,-2.3843,-2.389,-2.3891,-2.3892,-2.3893,0,-2.3873,-2.3862,-2.3872,-2.3879,-2.3887,-2.3891,-2.3893,-2.3902,-2.3876,-2.3886,-2.39,-2.3906,-2.3919,-2.3931,-2.3937,-2.3933,-2.3909,-2.3905,-2.3914,-2.3922,-2.3928,-2.3926,-2.38,-2.3903,-2.3902,-2.3901,-2.3901,-2.39,-2.3947,-2.3964,-2.396,-2.3972,-2.3971,-2.3973,-2.3988,-2.3977,-2.3988,-2.3996,-2.3981,-2.3999,-2.3996,-2.4001,-2.4,-2.4014,-2.3997,-2.4009,-2.4012,-2.4015,-2.4021,-2.3926,-2.4015,-2.4015,-2.4014,-2.4014,-2.4014,0,-2.4043,-2.4038,-2.405,-2.4053,-2.4063,-2.4039,-2.4039,-2.4049,-2.4065,-2.4064,-2.4072,-2.4089,-2.41,-2.4088,-2.4097,-2.4111,-2.41,-2.4114,-2.4113,-2.4113,-2.4036,-2.4028,-2.4123,-2.4123,-2.4123,-2.4123,-2.4123,-2.4123,-2.4094,-2.4123,-2.4112,-2.414,-2.4134,-2.4152,-2.4154,-2.4156,-2.4155,-2.4175,-2.4184,-2.4176,-2.4171,-2.4179,-2.4189,-2.4185,-2.419,-2.4208,-2.4201,-2.4129,-2.4118,-2.4108,-2.4101,-2.4209,-2.4209,-2.4277,-2.4277,-2.4278]},{"header":{"parameterUnit":"m.s-1","parameterCategory":1,"la1":30.2991,"la2":30.254,"lo1":-89.0895,"lo2":-89.0444,"dy":0.0017,"dx":0.0017,"nx":28,"ny":28,"refTime":"2025-04-23T09:00:00:Z","depth":0,"parameterNumber":3,"parameterNumberName":"V-component_of_WINDS"},"data":[0,0,0,0,0,0,0,0,0,0,0,0,0,0,0,0,0,0,0,0,0,0,0,0,0,0,0,0,0,0,0,0,0,0,0,0,0,0,0,0,0,0,0,0,0,0,0,0,0,0,0,0,0,0,0,0,0,0,2.3377,2.3377,0,2.3372,2.3372,2.3372,2.3341,2.3341,2.334,2.3339,2.3335,2.3335,2.3336,0,0,0,0,0,0,0,0,0,0,0,0,0,2.3359,2.336,2.3377,2.3377,2.3377,2.3372,2.3372,2.3372,2.3342,2.3341,2.334,2.3339,2.3334,2.3335,2.3336,0,0,0,0,0,0,0,0,0,0,0,0,0,2.3362,2.336,2.3377,2.3361,2.3359,2.3372,2.3372,2.3372,2.3342,2.3341,2.3339,2.3338,2.3334,2.3335,2.3336,2.3364,0,0,2.3339,2.3339,0,0,0,0,0,0,0,0,2.3362,2.3363,2.3363,2.3362,2.336,2.3356,2.3365,2.337,2.3342,2.3348,2.3339,2.3338,2.3343,2.3343,2.3344,2.3364,2.3364,2.3339,2.3339,2.334,2.334,0,0,0,0,0,0,0,2.3362,2.3363,2.3375,2.3363,2.3362,2.3354,2.3353,2.3365,2.3352,2.3348,2.3346,2.3345,2.3342,2.3344,2.3344,2.3363,2.3339,2.3339,2.334,2.334,2.3406,2.3407,0,0,0,0,0,0,2.3364,2.3363,2.3375,2.3375,2.3359,2.3355,2.3354,2.3359,2.3352,2.335,2.3346,2.3344,2.3343,2.3343,2.3344,2.3376,2.334,2.334,2.3341,2.3405,2.3406,2.3408,0,0,0,0,0,0,2.3364,2.3365,2.3375,2.3368,2.3369,2.3357,2.3362,2.3359,2.3361,2.3351,2.3348,2.3351,2.3342,2.3343,2.3359,2.3376,2.3341,2.3342,2.3403,2.3405,2.3407,2.3442,0,0,0,0,0,0,2.3363,2.3365,2.3376,2.3369,2.337,2.3391,2.3363,2.336,2.3363,2.336,2.3354,2.3352,2.3341,2.3358,2.336,2.3376,2.3342,2.3402,2.3404,2.3406,2.3439,2.3444,2.3449,0,0,0,0,0,2.3363,2.3386,2.3376,2.3378,2.3382,2.3392,2.3392,2.3379,2.3364,2.3375,2.3368,2.3352,2.3374,2.336,2.3362,2.3379,2.3401,2.3404,2.3406,2.3437,2.3443,2.3449,0,0,0,0,0,0,2.3394,2.3384,2.3374,2.3395,2.3395,2.3387,2.3399,2.3386,2.339,2.3387,2.337,2.3369,2.3389,2.3385,2.337,2.3406,2.3385,2.3388,2.3407,2.3413,2.3418,2.3418,2.3343,0,0,0,0,0,2.3404,2.3412,2.3403,2.3423,2.3423,2.3411,2.3415,2.3405,2.3404,2.3403,2.3398,2.3397,2.3404,2.3409,2.3414,2.3439,2.3437,2.3451,2.3456,2.3461,2.3463,2.3477,2.3483,2.3417,2.3417,2.3417,0,0,2.3423,2.3419,2.3425,2.3429,2.3427,2.3437,2.3411,2.3422,2.3429,2.3405,2.342,2.3417,2.3415,2.3436,2.3445,2.3434,2.3482,2.3464,2.3468,2.3468,2.348,2.3486,2.3492,2.3419,2.3418,2.3418,0,0,2.3464,2.3461,2.3477,2.3476,2.3475,2.3467,2.3471,2.3465,2.3462,2.3477,2.3459,2.3467,2.3479,2.3478,2.348,2.3521,2.3507,2.3524,2.355,2.3563,2.3568,2.3573,2.3588,2.3593,2.3527,2.3527,2.3527,0,2.3488,2.3501,2.3487,2.35,2.3502,2.3481,2.3497,2.3497,2.3497,2.3499,2.3487,2.3502,2.3499,2.352,2.353,2.3532,2.3536,2.3524,2.3569,2.3573,2.3577,2.3591,2.3597,2.3529,2.3529,2.3528,2.3528,0,2.3532,2.3541,2.3555,2.3555,2.3559,2.3574,2.3562,2.3568,2.3558,2.3552,2.3568,2.3564,2.3569,2.3573,2.3563,2.3593,2.3586,2.3572,2.355,2.3586,2.3598,2.3604,2.3532,2.3531,2.353,2.353,0,0,2.359,2.3584,2.3589,2.359,2.3586,2.3594,2.3608,2.3612,2.3618,2.3619,2.363,2.3641,2.3628,2.3629,2.362,2.3631,2.3664,2.3615,2.3615,2.3624,2.3697,2.3707,2.3714,2.3655,2.3656,2.3657,2.3697,0,2.3629,2.3652,2.364,2.3665,2.3674,2.3655,2.3667,2.3666,2.3661,2.3668,2.3662,2.367,2.3652,2.3653,2.3664,2.3658,2.3679,2.3655,2.3665,2.3666,2.3666,2.372,2.3731,2.3769,2.3702,2.3703,2.3703,0,2.3677,2.368,2.3706,2.3702,2.3705,2.3716,2.372,2.3727,2.3726,2.3722,2.3724,2.3712,2.3725,2.3704,2.3723,2.3707,2.3711,2.3709,2.371,2.371,2.3686,2.3722,2.3781,2.3786,2.3711,2.371,2.371,0,2.3717,2.3728,2.3745,2.3746,2.3742,2.375,2.3749,2.3747,2.3751,2.3754,2.3756,2.3762,2.3764,2.3768,2.3758,2.3744,2.3778,2.3756,2.3774,2.3775,2.3782,2.3782,2.3842,2.3785,2.3785,2.3785,2.3785,0,2.3761,2.3778,2.3763,2.3774,2.3792,2.3778,2.3797,2.3793,2.3792,2.3801,2.3785,2.3795,2.378,2.3788,2.378,2.3797,2.3798,2.3795,2.3792,2.3796,2.3796,2.3798,2.3795,2.3787,2.3786,2.3786,2.3786,0,2.3809,2.38,2.3817,2.3812,2.3811,2.3825,2.382,2.383,2.3824,2.3836,2.3838,2.3829,2.3837,2.3828,2.3835,2.383,2.3853,2.3846,2.3853,2.3851,2.387,2.3868,2.3933,2.3941,2.3879,2.388,2.388,0,2.3838,2.385,2.3846,2.3852,2.3851,2.386,2.3864,2.3852,2.3856,2.3857,2.3867,2.3874,2.3879,2.3894,2.3888,2.3894,2.3888,2.391,2.3888,2.3892,2.3888,2.3887,2.3888,2.3914,2.3915,2.3916,2.3916,0,2.3889,2.3884,2.3891,2.3896,2.3902,2.3905,2.3907,2.3912,2.39,2.3906,2.3915,2.3919,2.3927,2.3935,2.3939,2.3938,2.3925,2.3923,2.3928,2.3931,2.3935,2.3933,2.3864,2.3922,2.3921,2.3921,2.392,2.392,2.3928,2.3938,2.3938,2.3945,2.3946,2.3949,2.3958,2.3953,2.396,2.3966,2.3958,2.3969,2.3969,2.3974,2.3974,2.3982,2.3973,2.3979,2.3981,2.3983,2.3986,2.3934,2.3983,2.3983,2.3983,2.3983,2.3983,0,2.3979,2.3978,2.3985,2.3989,2.3996,2.3983,2.3986,2.3992,2.4002,2.4002,2.4008,2.4018,2.4026,2.4021,2.4027,2.4035,2.4029,2.4037,2.4036,2.4036,2.3994,2.3989,2.4042,2.4042,2.4042,2.4042,2.4042,2.4042,2.4006,2.4023,2.4018,2.4035,2.4034,2.4045,2.4047,2.4049,2.405,2.4062,2.4069,2.4065,2.4064,2.407,2.4077,2.4075,2.4078,2.4088,2.4084,2.4045,2.4039,2.4033,2.4029,2.4089,2.4089,2.4126,2.4126,2.4126]}]]